[[{"header":{"parameterUnit":"m.s-1","parameterCategory":1,"la1":30.2991,"la2":30.254,"lo1":-89.0895,"lo2":-89.0444,"dy":0.0017,"dx":0.0017,"nx":28,"ny":28,"refTime":"2025-07-23T09:00:00:Z","depth":0,"parameterNumber":2,"parameterNumberName":"U-component_of_WINDS"},"data":[0,0,0,0,0,0,0,0,0,0,0,0,0,0,0,0,0,0,0,0,0,0,0,0,0,0,0,0,0,0,0,0,0,0,0,0,0,0,0,0,0,0,0,0,0,0,0,0,0,0,0,0,0,0,0,0,0,0,1.9517,1.9516,0,1.9474,1.9474,1.9473,1.9425,1.9424,1.9424,1.9423,1.9378,1.9378,1.9377,0,0,0,0,0,0,0,0,0,0,0,0,0,1.9557,1.9556,1.9517,1.9516,1.9516,1.9474,1.9474,1.9473,1.9425,1.9424,1.9423,1.9423,1.9379,1.9378,1.9377,0,0,0,0,0,0,0,0,0,0,0,0,0,1.9529,1.9556,1.9517,1.9487,1.9484,1.9475,1.9474,1.9473,1.9425,1.9424,1.9423,1.9422,1.9379,1.9378,1.9377,1.9394,0,0,1.9375,1.9374,0,0,0,0,0,0,0,0,1.9531,1.9528,1.9492,1.9489,1.9485,1.9454,1.9472,1.9447,1.9426,1.9448,1.9423,1.9422,1.9404,1.9401,1.9396,1.9392,1.939,1.9375,1.9374,1.9374,1.9374,0,0,0,0,0,0,0,1.9533,1.953,1.95,1.9491,1.9487,1.9476,1.9471,1.9467,1.9432,1.9446,1.9442,1.9438,1.9402,1.9397,1.9394,1.9389,1.9375,1.9374,1.9374,1.9373,1.9399,1.94,0,0,0,0,0,0,1.9539,1.9531,1.9501,1.9499,1.9506,1.9476,1.947,1.9465,1.9432,1.9426,1.9439,1.9436,1.9398,1.9395,1.9393,1.9411,1.9374,1.9373,1.9373,1.9398,1.94,1.9401,0,0,0,0,0,0,1.954,1.9537,1.9503,1.9514,1.9509,1.9476,1.9471,1.9465,1.9459,1.9427,1.9421,1.9439,1.9397,1.9394,1.9395,1.9409,1.9373,1.9372,1.9397,1.9399,1.94,1.9449,0,0,0,0,0,0,1.9542,1.9538,1.9544,1.9515,1.9509,1.9506,1.9472,1.9465,1.9458,1.9454,1.9426,1.942,1.9396,1.9396,1.9394,1.9407,1.9372,1.9395,1.9398,1.94,1.9446,1.9452,1.9457,0,0,0,0,0,1.9543,1.9558,1.9544,1.9541,1.9515,1.9507,1.9503,1.9476,1.9459,1.9465,1.9445,1.9421,1.9408,1.9396,1.9394,1.9407,1.9394,1.9397,1.9399,1.9443,1.9451,1.9457,0,0,0,0,0,0,1.9589,1.9554,1.9538,1.9544,1.9529,1.9499,1.9505,1.9484,1.9473,1.947,1.9436,1.943,1.9435,1.9421,1.9409,1.9423,1.9398,1.94,1.9432,1.9439,1.9445,1.9448,1.9371,0,0,0,0,0,1.96,1.9596,1.9565,1.9574,1.9567,1.9538,1.9533,1.9513,1.9496,1.9489,1.9469,1.9453,1.9446,1.9441,1.9432,1.9443,1.9438,1.9452,1.9457,1.9462,1.9465,1.9472,1.9478,1.9409,1.9409,1.9409,0,0,1.9622,1.9602,1.9602,1.9582,1.9568,1.9566,1.9532,1.953,1.9528,1.9489,1.9489,1.9474,1.9454,1.9461,1.9462,1.9449,1.9483,1.9466,1.947,1.9469,1.9475,1.9481,1.9487,1.9411,1.9411,1.9411,0,0,1.9661,1.9645,1.9651,1.9639,1.9618,1.9599,1.9601,1.9574,1.9563,1.9563,1.9534,1.9531,1.9518,1.9506,1.9498,1.9535,1.9513,1.9533,1.9563,1.957,1.9576,1.958,1.9595,1.9601,1.9535,1.9536,1.9536,0,1.9691,1.9686,1.9657,1.9657,1.965,1.9616,1.9622,1.9611,1.9589,1.9585,1.957,1.9555,1.9539,1.9544,1.9553,1.9547,1.9549,1.9536,1.9577,1.9582,1.9586,1.9599,1.9605,1.9538,1.9538,1.9538,1.9537,0,1.9724,1.9721,1.9729,1.971,1.9703,1.9707,1.9679,1.9676,1.9658,1.964,1.9642,1.9622,1.9609,1.9608,1.959,1.9611,1.9603,1.9584,1.9558,1.9595,1.9608,1.9613,1.9542,1.9541,1.954,1.954,0,0,1.979,1.9756,1.976,1.9751,1.9727,1.9725,1.9727,1.9716,1.9715,1.9701,1.9703,1.9694,1.9677,1.9668,1.9648,1.9654,1.9687,1.9633,1.9632,1.9645,1.9711,1.9727,1.9733,1.9672,1.9673,1.9674,1.9713,0,1.9826,1.9828,1.9804,1.9813,1.9811,1.9779,1.9782,1.9768,1.9752,1.9748,1.973,1.9725,1.9701,1.9696,1.97,1.9682,1.97,1.9679,1.9675,1.9675,1.9681,1.9739,1.9755,1.9793,1.9717,1.9718,1.9719,0,1.9867,1.9858,1.9868,1.9845,1.9843,1.9846,1.9835,1.9831,1.9815,1.9803,1.9795,1.9772,1.9774,1.975,1.9752,1.9739,1.9735,1.9726,1.9727,1.9726,1.97,1.9741,1.9804,1.9811,1.9726,1.9725,1.9725,0,1.9916,1.9905,1.991,1.9904,1.9878,1.9881,1.987,1.9853,1.9848,1.9838,1.9835,1.9826,1.982,1.9814,1.979,1.9774,1.9796,1.9769,1.9787,1.9788,1.9793,1.9793,1.9858,1.979,1.979,1.979,1.979,0,1.9959,1.9967,1.9932,1.9935,1.9944,1.9915,1.9924,1.991,1.9896,1.9896,1.9867,1.9868,1.9836,1.9834,1.9815,1.9821,1.9819,1.981,1.9805,1.9813,1.9814,1.9811,1.9808,1.9791,1.9791,1.9791,1.979,0,2.0015,1.9992,1.9996,1.9971,1.9965,1.9973,1.9952,1.9954,1.9937,1.9938,1.9937,1.991,1.9906,1.9881,1.9871,1.9859,1.9872,1.9861,1.9878,1.9875,1.9895,1.9894,1.9961,1.9969,1.9895,1.9895,1.9896,0,2.0045,2.005,2.0027,2.0025,2.0016,2.0014,2.001,1.9982,1.9979,1.9963,1.9967,1.9961,1.9955,1.995,1.993,1.9923,1.9913,1.9937,1.9911,1.992,1.9915,1.9915,1.9917,1.9942,1.9943,1.9944,1.9945,0,2.01,2.0089,2.0084,2.0076,2.0072,2.0064,2.0054,2.0054,2.0024,2.0023,2.0019,2.0014,2.0005,2.0,1.999,1.9979,1.9957,1.9953,1.9957,1.9966,1.9976,1.9972,1.9894,1.9951,1.9951,1.995,1.995,1.995,2.0144,2.0149,2.0133,2.0129,2.012,2.0112,2.0113,2.0097,2.0094,2.0085,2.0069,2.0068,2.0053,2.0037,2.0029,2.0028,2.0015,2.002,2.0022,2.0024,2.0029,1.9975,2.0026,2.0025,2.0025,2.0025,2.0025,0,2.02,2.0189,2.0185,2.0173,2.0171,2.0151,2.014,2.0139,2.0139,2.0127,2.0122,2.0119,2.0114,2.0095,2.0088,2.0092,2.0082,2.0091,2.0091,2.0089,2.004,2.0038,2.0099,2.0099,2.0099,2.0099,2.0099,2.0099,2.0228,2.0235,2.0222,2.0224,2.0213,2.0212,2.0208,2.0201,2.0192,2.0189,2.0186,2.0173,2.0159,2.0151,2.0147,2.0141,2.0141,2.0154,2.0145,2.0099,2.0092,2.0086,2.0083,2.0153,2.0153,2.0194,2.0195,2.0195]},{"header":{"parameterUnit":"m.s-1","parameterCategory":1,"la1":30.2991,"la2":30.254,"lo1":-89.0895,"lo2":-89.0444,"dy":0.0017,"dx":0.0017,"nx":28,"ny":28,"refTime":"2025-07-23T09:00:00:Z","depth":0,"parameterNumber":3,"parameterNumberName":"V-component_of_WINDS"},"data":[0,0,0,0,0,0,0,0,0,0,0,0,0,0,0,0,0,0,0,0,0,0,0,0,0,0,0,0,0,0,0,0,0,0,0,0,0,0,0,0,0,0,0,0,0,0,0,0,0,0,0,0,0,0,0,0,0,0,-3.9463,-3.9463,0,-3.9468,-3.9468,-3.9468,-3.9448,-3.9447,-3.9447,-3.9446,-3.9447,-3.9448,-3.9448,0,0,0,0,0,0,0,0,0,0,0,0,0,-3.9436,-3.9437,-3.9463,-3.9463,-3.9463,-3.9468,-3.9468,-3.9468,-3.9448,-3.9447,-3.9447,-3.9446,-3.9447,-3.9447,-3.9448,0,0,0,0,0,0,0,0,0,0,0,0,0,-3.9445,-3.9437,-3.9463,-3.9454,-3.9453,-3.9468,-3.9468,-3.9468,-3.9448,-3.9447,-3.9447,-3.9446,-3.9447,-3.9447,-3.9448,-3.947,0,0,-3.9451,-3.9451,0,0,0,0,0,0,0,0,-3.9444,-3.9446,-3.9455,-3.9455,-3.9454,-3.9457,-3.9458,-3.9468,-3.9448,-3.945,-3.9446,-3.9445,-3.9451,-3.9451,-3.9454,-3.947,-3.947,-3.9451,-3.9451,-3.9452,-3.9452,0,0,0,0,0,0,0,-3.9444,-3.9445,-3.9465,-3.9456,-3.9455,-3.9449,-3.945,-3.946,-3.9455,-3.945,-3.9448,-3.9449,-3.945,-3.9453,-3.9453,-3.947,-3.9451,-3.9451,-3.9452,-3.9452,-3.9508,-3.9509,0,0,0,0,0,0,-3.9445,-3.9445,-3.9465,-3.9465,-3.9447,-3.9451,-3.9451,-3.9456,-3.9455,-3.9454,-3.945,-3.9449,-3.9452,-3.9453,-3.9453,-3.9481,-3.9452,-3.9452,-3.9453,-3.9507,-3.9508,-3.9509,0,0,0,0,0,0,-3.9444,-3.9447,-3.9464,-3.9455,-3.9457,-3.9452,-3.9458,-3.9457,-3.946,-3.9455,-3.9454,-3.9454,-3.9451,-3.9452,-3.9467,-3.9481,-3.9453,-3.9453,-3.9506,-3.9507,-3.9509,-3.9535,0,0,0,0,0,0,-3.9443,-3.9447,-3.9455,-3.9455,-3.9457,-3.9479,-3.9459,-3.9458,-3.9462,-3.946,-3.9458,-3.9457,-3.9451,-3.9466,-3.9468,-3.9481,-3.9454,-3.9505,-3.9506,-3.9508,-3.9533,-3.9537,-3.9541,0,0,0,0,0,-3.9443,-3.9461,-3.9456,-3.9458,-3.9468,-3.9479,-3.948,-3.9473,-3.9463,-3.9471,-3.9469,-3.9457,-3.9479,-3.9468,-3.947,-3.9483,-3.9504,-3.9506,-3.9508,-3.9531,-3.9536,-3.9541,0,0,0,0,0,0,-3.946,-3.946,-3.9455,-3.9473,-3.9477,-3.9476,-3.9486,-3.9479,-3.9484,-3.9482,-3.9472,-3.9472,-3.9489,-3.9487,-3.9475,-3.9506,-3.9489,-3.9492,-3.9506,-3.9511,-3.9515,-3.9515,-3.9455,0,0,0,0,0,-3.9467,-3.9477,-3.9476,-3.9493,-3.9495,-3.9491,-3.9495,-3.949,-3.9492,-3.9493,-3.9492,-3.9494,-3.9501,-3.9506,-3.9512,-3.9533,-3.9533,-3.9543,-3.9547,-3.9551,-3.9553,-3.9566,-3.9572,-3.9517,-3.9517,-3.9517,0,0,-3.9479,-3.9481,-3.9487,-3.9496,-3.9498,-3.9509,-3.9492,-3.9503,-3.9511,-3.9494,-3.9509,-3.9509,-3.951,-3.9529,-3.9537,-3.9528,-3.9569,-3.9554,-3.9556,-3.9557,-3.9569,-3.9575,-3.9579,-3.9518,-3.9518,-3.9518,0,0,-3.9508,-3.9509,-3.9525,-3.9528,-3.9532,-3.953,-3.9534,-3.9535,-3.9534,-3.955,-3.9538,-3.9547,-3.956,-3.9562,-3.9565,-3.9599,-3.9589,-3.9601,-3.9622,-3.9635,-3.9639,-3.9643,-3.9656,-3.9661,-3.9603,-3.9603,-3.9603,0,-3.9522,-3.9539,-3.9533,-3.9547,-3.9552,-3.954,-3.9556,-3.9559,-3.9564,-3.9568,-3.9559,-3.9576,-3.9576,-3.9596,-3.9605,-3.9607,-3.9612,-3.9601,-3.9639,-3.9643,-3.9646,-3.9659,-3.9664,-3.9605,-3.9605,-3.9605,-3.9604,0,-3.9558,-3.957,-3.9582,-3.959,-3.9596,-3.9611,-3.9607,-3.9614,-3.9609,-3.9608,-3.9625,-3.9625,-3.9632,-3.9637,-3.963,-3.9657,-3.9652,-3.9641,-3.9624,-3.9653,-3.9665,-3.967,-3.9607,-3.9607,-3.9606,-3.9606,0,0,-3.9596,-3.9604,-3.9608,-3.9613,-3.9618,-3.9627,-3.9641,-3.9651,-3.9658,-3.9662,-3.9675,-3.9688,-3.9679,-3.9682,-3.9677,-3.9688,-3.9717,-3.9676,-3.9676,-3.9685,-3.9748,-3.9757,-3.9763,-3.9711,-3.9712,-3.9712,-3.9748,0,-3.9625,-3.9652,-3.9649,-3.9674,-3.9686,-3.9676,-3.9689,-3.9694,-3.9694,-3.9703,-3.9702,-3.9712,-3.9699,-3.9701,-3.9712,-3.9711,-3.973,-3.9708,-3.9722,-3.9723,-3.9723,-3.9768,-3.9777,-3.9811,-3.9753,-3.9754,-3.9754,0,-3.9663,-3.9672,-3.9699,-3.9706,-3.971,-3.9722,-3.9732,-3.9741,-3.9747,-3.9746,-3.9752,-3.9745,-3.976,-3.9744,-3.9765,-3.975,-3.9756,-3.9757,-3.9758,-3.9759,-3.9741,-3.9772,-3.9821,-3.9827,-3.9761,-3.9761,-3.976,0,-3.969,-3.9709,-3.9728,-3.9732,-3.974,-3.9749,-3.9752,-3.9757,-3.9764,-3.9772,-3.9777,-3.9786,-3.9791,-3.9798,-3.9795,-3.9782,-3.9817,-3.9799,-3.9817,-3.9817,-3.9824,-3.9824,-3.9877,-3.9827,-3.9827,-3.9827,-3.9827,0,-3.9723,-3.9741,-3.9741,-3.9753,-3.9773,-3.9769,-3.9788,-3.979,-3.9796,-3.9808,-3.9799,-3.9811,-3.9805,-3.9816,-3.9813,-3.9832,-3.9834,-3.9834,-3.9833,-3.9835,-3.9835,-3.9839,-3.9837,-3.9828,-3.9828,-3.9828,-3.9827,0,-3.9756,-3.9757,-3.9778,-3.9785,-3.9787,-3.9801,-3.9807,-3.9818,-3.9819,-3.9834,-3.9838,-3.9838,-3.9851,-3.9848,-3.9862,-3.986,-3.9884,-3.988,-3.9883,-3.9882,-3.9901,-3.99,-3.9958,-3.9966,-3.991,-3.9911,-3.9911,0,-3.9778,-3.9792,-3.9801,-3.981,-3.9815,-3.9828,-3.9836,-3.9834,-3.9842,-3.9852,-3.9862,-3.9875,-3.9885,-3.9907,-3.9908,-3.9919,-3.9915,-3.9935,-3.9916,-3.9919,-3.9917,-3.9917,-3.9919,-3.9938,-3.9939,-3.9939,-3.994,0,-3.9817,-3.9818,-3.983,-3.9844,-3.9854,-3.9864,-3.9873,-3.9881,-3.9879,-3.9889,-3.9904,-3.9912,-3.9928,-3.9941,-3.9952,-3.9955,-3.9948,-3.9946,-3.9951,-3.9953,-3.9956,-3.9956,-3.9894,-3.9944,-3.9944,-3.9944,-3.9943,-3.9943,-3.9846,-3.9859,-3.9869,-3.9883,-3.9891,-3.99,-3.9912,-3.9916,-3.9928,-3.9942,-3.994,-3.9957,-3.9964,-3.9979,-3.9983,-3.9996,-3.9989,-3.9995,-3.9997,-3.9999,-4.0002,-3.9953,-3.9998,-3.9998,-3.9998,-3.9998,-3.9997,0,-3.9886,-3.9893,-3.9907,-3.9921,-3.9933,-3.9928,-3.9938,-3.9948,-3.9964,-3.9973,-3.9984,-4.0002,-4.0016,-4.0019,-4.0032,-4.0042,-4.0039,-4.0046,-4.0045,-4.0046,-4.0007,-4.0003,-4.0048,-4.0048,-4.0048,-4.0048,-4.0048,-4.0048,-3.9908,-3.9931,-3.9933,-3.9959,-3.9965,-3.9984,-3.999,-4.0,-4.0007,-4.0028,-4.004,-4.0043,-4.005,-4.0064,-4.0077,-4.0077,-4.0083,-4.0091,-4.009,-4.0054,-4.0049,-4.0044,-4.004,-4.0092,-4.0092,-4.0128,-4.0129,-4.0129]}]]